STARLINK-4102 (53143 NORAD) Tracking and Keplerian Element Data

This shows tracking and keplerian element data for the satellite.

Feedback or suggestion? Click here.




ElementValue
Catalog53143
NameSTARLINK-4102
Epoch Orbit1171
Epoch Day270.25001157
Epoch Year2022
RAAN67.9498
Inclination53.2176
Eccentricity0.0001564
Argument of Perigee51.3892
Mean Anonmoly116.9938
Mean Motion15.08821772
Decay Rate0.00029981
L11 53143U 22083M 22270.25001157 .00029981 00000+0 18948-2 0 9995
L22 53143 53.2176 67.9498 0001564 51.3892 116.9938 15.08821772 11717

Live tracking and technical data element details for STARLINK-4102 (NORAD 53143). STARLINK-4102 can be tracked NOW for your location showing map with azimuth and elevation plus other details from your city location.

Track the satellite on the map from your city or location and see movement details for azimuth, elevation, latitude, longitude, range, height, and movement on the map or in text.







IsCatalogInMostPopularTable: catalog: 53143, numindb: 7
Update: records affected: 1



GetName: 53143 STARLINK-4102

Hit Count: updated at: Fri, 30 Sep 2022 04:09:55 GMT